PI1GDA-1 Weather Reports


time (UTC)temp
C
wind
direction
speed
KPH
gust
KPH
rain 1hr
cm
rain 24hr
cm
rain mn
cm
humidity
%
barometer
mb
20260505194556 11 338 8.0 30.6 0.00 0.00 0.00 78 1011.1
20260505193555 11 22 8.0 30.6 0.00 0.00 0.00 78 1011.0
20260505192555 11 45 8.0 30.6 0.00 0.00 0.00 78 1010.9
20260505191554 12 68 9.7 30.6 0.00 0.00 0.00 77 1010.8
20260505190554 12 22 8.0 30.6 0.00 0.00 0.00 77 1010.7
20260505185553 12 22 11.3 30.6 0.00 0.00 0.00 76 1010.6
20260505184553 12 90 9.7 30.6 0.00 0.00 0.00 75 1010.5
20260505183549 12 112 11.3 30.6 0.00 0.00 0.00 75 1010.4
20260505182549 12 68 9.7 30.6 0.00 0.00 0.00 74 1010.6
20260505181549 13 68 9.7 30.6 0.00 0.00 0.00 74 1010.5
20260505180548 13 0 11.3 30.6 0.00 0.00 0.00 74 1010.5
20260505175546 13 22 9.7 30.6 0.00 0.00 0.00 73 1010.5
20260505174546 13 22 11.3 30.6 0.00 0.00 0.00 72 1010.6
20260505173545 13 22 9.7 30.6 0.00 0.00 0.00 71 1010.5
20260505172544 14 45 9.7 30.6 0.00 0.00 0.00 70 1010.7
20260505171541 14 68 9.7 30.6 0.00 0.00 0.00 70 1010.6
20260505170540 14 45 11.3 30.6 0.00 0.00 0.00 70 1010.7
20260505165540 15 45 9.7 30.6 0.00 0.00 0.00 70 1010.7
20260505164539 15 45 9.7 30.6 0.00 0.00 0.00 69 1010.7
20260505163538 15 45 9.7 30.6 0.00 0.00 0.00 70 1010.7
20260505162537 15 45 11.3 30.6 0.00 0.00 0.00 69 1010.8
20260505161536 15 68 11.3 30.6 0.00 0.00 0.00 68 1010.9
20260505160536 15 68 9.7 30.6 0.00 0.00 0.00 67 1010.9
20260505152532 15 0 9.7 30.6 0.00 0.00 0.00 71 1010.9
20260505151531 15 68 9.7 30.6 0.00 0.00 0.00 68 1011.0
20260505150531 16 45 9.7 30.6 0.00 0.00 0.00 65 1011.0
20260505140525 15 45 9.7 30.6 0.00 0.00 0.00 67 1011.2
20260505124519 16 45 9.7 30.6 0.00 0.00 0.00 67 1011.7
20260505123519 15 45 9.7 30.6 0.00 0.00 0.00 69 1011.7
20260505122519 15 68 11.3 30.6 0.00 0.00 0.00 71 1011.7
20260505121518 15 68 11.3 30.6 0.00 0.00 0.00 71 1011.7
20260505120517 15 22 12.9 30.6 0.00 0.00 0.00 72 1011.8
20260505115517 15 90 11.3 27.4 0.00 0.00 0.00 71 1011.6
20260505114516 15 22 9.7 27.4 0.00 0.00 0.00 71 1011.7
20260505113515 14 112 9.7 27.4 0.00 0.00 0.00 72 1011.9
20260505112513 14 0 9.7 27.4 0.00 0.00 0.00 75 1012.0
20260505111511 14 45 9.7 27.4 0.00 0.00 0.00 75 1012.1
20260505110509 13 22 9.7 27.4 0.00 0.00 0.00 74 1012.1